Regional Weather Roundup
Issued by NWS

Home | Current Version | Previous Version | Graphics & Text | Print | Product List | Glossary On
Versions: 1 2 3 4 5 6 7 8 9 10 11 12 13 14 15 16 17 18 19 20 21 22 23 24 25 26 27 28 29 30 31 32 33 34 35 36 37 38 39 40 41 42 43 44 45 46 47 48 49 50
000
ASUS43 KFSD 241810
RWRSD

WEATHER ROUNDUP FOR SOUTH DAKOTA
NATIONAL WEATHER SERVICE SIOUX FALLS SD
1200 PM CST WED DEC 24 2014

NOTE: "FAIR" INDICATES FEW OR NO CLOUDS BELOW 12,000 FEET WITH NO
SIGNIFICANT WEATHER AND/OR OBSTRUCTIONS TO VISIBILITY.


SDZ001>005-009-010-012>017-241900-
NORTHWEST AND NORTH CENTRAL SOUTH DAKOTA

CITY           SKY/WX    TMP DP  RH WIND       PRES   REMARKS
BUFFALO          N/A     33  25  72 W6        29.54F WCI  28
FAITH            N/A     25  17  72 S14       29.62F WCI  13
MOBRIDGE       PTSUNNY   25  19  78 S13       29.66F WCI  14
$$

SDZ012>016-024>037-041>051-057-063-072>074-241900-
SOUTHWEST AND SOUTH CENTRAL SOUTH DAKOTA

CITY           SKY/WX    TMP DP  RH WIND       PRES   REMARKS
RAPID CTY ARPT CLOUDY    32  20  61 CALM      29.64F
PIERRE         MOSUNNY   22  17  81 SE9       29.71F WCI  12
CUSTER         CLOUDY    38  18  44 W13       29.64F
ELLSWORTH AFB  CLOUDY    35  20  55 SW2       29.63F
PHILIP         SUNNY     28  20  71 SW6       29.68F WCI  22
PINE RIDGE     PTSUNNY   31  17  56 SW3       29.71F
SPEARFISH      FAIR      41  25  52 W5        29.62F
WINNER         FAIR      26  16  65 SW12      29.74F WCI  16
$$

SDZ004>011-016>023-039-040-241900-
NORTHEAST SOUTH DAKOTA

CITY           SKY/WX    TMP DP  RH WIND       PRES   REMARKS
ABERDEEN       CLOUDY    27  24  89 SW13      29.75F WCI  16
WATERTOWN      FOG       24  23  96 W9        29.74F VSB 1/4 WCI  14
$$

SDZ017-020-022-023-036>040-048>070-241900-
SOUTHEAST SOUTH DAKOTA

CITY           SKY/WX    TMP DP  RH WIND       PRES   REMARKS
SIOUX FALLS    FRZ DRZL  26  24  92 NW9       29.79F FOG     WCI  17
HURON          CLOUDY    26  23  88 SW7       29.79F FOG     WCI  18
CHAMBERLAIN    CLOUDY    24  23  97 S7        29.77F FOG     WCI  15
MITCHELL       CLOUDY    26  24  92 W7        29.82F FOG     WCI  18
YANKTON        CLOUDY    27  21  80 W5        29.83F WCI  21
$$

ABBREVIATIONS USED IN REMARKS
   TC - TEMPERATURE IN CELSIUS
  WCI - WIND CHILL INDEX
   HX - HEAT INDEX
  VSB - VISIBILITY




USA.gov is the U.S. government's official web portal to all federal, state and local government web resources and services.